Tracking 35237 objects as of 6-Sep-2026
HD Live streaming from Space Station
objects crossing your sky now

COSMOS 1273 DEB


COSMOS 1273 DEB is no longer on orbit


NORAD ID: 12501
Int'l Code: 1981-048D
Launch date: May 22, 1981
Source: Commonwealth of Independent States (former USSR) (CIS)
Launch site: PLESETSK MISSILE AND SPACE COMPLEX (PKMTR)
Decay date: 1981-06-11

Note: This is SATELLITE DEBRIS
Your satellite tracking list
Your tracking list is empty




NASA's NSSDC Master Catalog

Two Line Element Set (TLE):
1 12501U 81048  D 81160.17686609  .06296441 -97392-5 +15442-3 0  9996
2 12501 082.3183 352.6595 0011709 244.0777 116.0422 16.45208827002900
Source of the keplerian elements: AFSPC